Hourly Data Report for March 26, 2012

HALIFAX STANFIELD INT'L A
NOVA SCOTIA

44°52'48.060" N
63°30'00.050" W
145.40 m
8202250
71395
YHZ

Download Data

Hourly Data (March 2012)
Hourly Data Report for March 26, 2012
TIME Temp Definition
°C
Dew Point Definition
°C
Rel Hum Definition
%
Wind Dir Definition
10's deg

Wind Spd Definition
km/h
Visibility Definition
km
Stn Press Definition
kPa
Hmdx Definition


Wind Chill Definition


Weather Definition


00:00 0.2 -0.4 96 16 13 16.1 99.04     Snow Showers
01:00 0.3 -0.2 96 16 19 6.4 98.95     Fog
02:00 0.5 0.1 97 14 20 3.2 98.75     Fog
03:00 0.8 0.4 97 14 13 1.2 98.65     Drizzle,Fog
04:00 0.9 0.6 98 14 11 2.4 98.59     Drizzle,Fog
05:00 1.2 1.0 99 13 7 2.4 98.52     Drizzle,Fog
06:00 1.1 0.8 98 9 7 2.4 98.42     Drizzle,Fog
07:00 1.3 1.1 99 7 7 4.8 98.33     Drizzle,Fog
08:00 1.8 1.5 98 1 7 4.8 98.23     Drizzle,Fog
09:00 2.5 2.0 96 5 7 4.8 98.14     Drizzle,Fog
10:00 3.8 3.4 97 6 11 4.8 98.01     Drizzle,Fog
11:00 3.7 3.3 97 31 17 0.6 98.01     Fog
12:00 3.9 3.6 98 31 28 16.1 97.96     Cloudy
13:00 4.4 3.1 91 33 30 24.1 97.85     Cloudy
14:00 4.0 2.8 92 33 28 24.1 97.82     Cloudy
15:00 3.9 3.2 95 34 22 24.1 97.82     Cloudy
16:00 3.9 3.6 98 34 19 9.7 97.81     Fog
17:00 0.8 -0.5 91 35 37 16.1 97.89     Snow Showers
18:00 -0.6 -1.8 92 33 28 3.2 98.00   -7 Snow Showers
19:00 -1.3 -3.4 86 34 35 16.1 98.01   -9 Snow Showers
20:00 -1.9 -4.2 84 34 41 3.2 98.07   -10 Snow Showers
21:00 -2.2 -5.3 79 34 28 16.1 98.12   -9 Snow Showers
22:00 -2.6 -7.5 69 33 41 19.3 98.14   -11 Cloudy
23:00 -3.0 -8.2 67 33 32 24.1 98.16   -11 Cloudy

Notes on Data Quality.

Legend

  • E = Estimated
  • M = Missing
  • NA = Not Available*
  • [empty] = Indicates an unobserved value
Date modified: